Simultaneous Nadir Overpasses (SNOs) Predictions

Prediction of SNOs near equator between AQUA and NPP Satellite Orbit:

Table of predicted SNOs near equator for the next 14.0 days since TLE Epoch: 8/16/2019
Index Date (AQUA) Time (AQUA) AQUA Lat,Lon Date (NPP) Time (NPP) NPP Lat,Lon Distance(km) Time Diff (sec)
1 08/18/2019 07:52:27 5.06, 85.03 08/18/2019 07:42:46 5.02, 84.85 20.40 581
2 08/18/2019 08:40:35 -0.56,-106.36 08/18/2019 08:32:09 -0.47,-106.80 50.15 506
3 08/18/2019 09:28:49 -4.06, 62.25 08/18/2019 09:21:39 -4.20, 61.54 79.93 430
4 08/21/2019 00:08:31 3.53,-158.77 08/20/2019 23:59:15 3.46,-159.03 29.88 556
5 08/21/2019 00:56:39 0.97, 9.84 08/21/2019 00:48:38 1.09, 9.32 59.63 481
6 08/21/2019 01:44:53 -5.60, 178.45 08/21/2019 01:38:08 -5.76, 177.66 89.13 405
7 08/23/2019 15:39:35 -18.39, 146.23 08/23/2019 15:29:35 -18.43, 146.00 25.32 600
8 08/23/2019 16:24:35 2.05, -42.58 08/23/2019 16:15:44 1.97, -42.92 39.43 531
9 08/23/2019 17:12:43 2.44, 126.03 08/23/2019 17:05:07 2.59, 125.43 69.13 456
10 08/23/2019 18:00:57 -7.07, -65.36 08/23/2019 17:54:37 -7.25, -66.23 98.28 380
11 08/26/2019 07:52:24 -5.10, -94.97 08/26/2019 07:42:43 -5.08, -95.14 19.10 581
12 08/26/2019 08:40:39 0.52, 73.62 08/26/2019 08:32:13 0.42, 73.20 48.89 506
13 08/26/2019 09:28:47 3.97,-117.76 08/26/2019 09:21:36 4.14,-118.45 78.46 431
14 08/29/2019 00:08:28 -3.56, 21.23 08/28/2019 23:59:12 -3.53, 20.98 28.48 556
15 08/29/2019 00:56:43 -1.01,-170.17 08/29/2019 00:48:42 -1.14,-170.68 58.30 481
16 08/29/2019 01:44:51 5.51, -1.56 08/29/2019 01:38:05 5.69, -2.33 87.69 406




NCC Satellite Simultaneous Nadir Overpasses (SNOs) Prediction Service
